Location: Dulzura
(32.6442°N, 116.7814°W)
Time: 04:51:45
(UTC+00:00)

AO-7 - Visible Passes

Search period start: 21 March 2023 00:00
Search period end: 31 March 2023 00:00
Orbit: 1440 x 1458 km, 101.9° (Epoch: 20 March)

Date Brightness Start Highest point End Pass type
(mag) Time Alt. Az. Time Alt. Az. Time Alt. Az.
21 Mar ? 12:00:34 10° NNE 12:08:36 50° ESE 12:16:33 10° S visible
22 Mar ? 11:02:54 10° NE 11:08:10 18° E 11:13:25 10° SE visible
22 Mar ? 12:53:08 10° NNE 13:01:29 77° WNW 13:09:45 10° SSW visible
23 Mar ? 11:53:38 10° NNE 12:01:30 44° ESE 12:09:17 10° S visible
24 Mar ? 10:56:27 10° ENE 11:01:01 16° E 11:05:33 10° SE visible
24 Mar ? 12:46:04 10° NNE 12:54:27 85° WNW 13:02:44 10° SSW visible
25 Mar ? 11:46:44 10° NNE 11:54:25 40° E 12:02:00 10° SSE visible
26 Mar ? 10:50:15 10° ENE 10:53:51 13° E 10:57:27 10° ESE visible
26 Mar ? 12:39:00 10° NNE 12:47:23 87° ESE 12:55:42 10° SSW visible
27 Mar ? 11:39:51 10° NE 11:47:18 35° E 11:54:39 10° SSE visible
28 Mar ? 10:44:31 10° ENE 10:46:41 11° E 10:48:50 10° ESE visible
28 Mar ? 12:31:58 10° NNE 12:40:20 79° ESE 12:48:37 10° SSW visible
29 Mar ? 11:33:01 10° NE 11:40:11 31° E 11:47:16 10° SSE visible
30 Mar ? 12:24:56 10° NNE 12:33:16 72° ESE 12:41:31 10° S visible
